CUBEBEL-1 (BSUSAT-1) (43666 NORAD) Tracking and Keplerian Element Data

This shows tracking and keplerian element data for the satellite.

Feedback or suggestion? Click here.




ElementValue
Catalog43666
NameCUBEBEL-1 (BSUSAT-1)
Epoch Orbit331
Epoch Day323.86219998
Epoch Year2018
RAAN344.6272
Inclination97.539
Eccentricity0.0014564
Argument of Perigee194.4465
Mean Anonmoly289.9366
Mean Motion15.17132097
Decay Rate9.47E-06
L11 43666U 18083E 18323.86219998 .00000947 00000-0 51086-4 0 9998
L22 43666 97.5390 344.6272 0014564 194.4465 289.9366 15.17132097 3317

Live tracking and technical data element details for CUBEBEL-1 (BSUSAT-1) (NORAD 43666). CUBEBEL-1 (BSUSAT-1) can be tracked NOW for your location showing map with azimuth and elevation plus other details from your city location.

Track the satellite on the map from your city or location and see movement details for azimuth, elevation, latitude, longitude, range, height, and movement on the map or in text.







IsCatalogInMostPopularTable: catalog: 43666, numindb: 9
Update: records affected: 1



GetName: 43666 CUBEBEL-1 (BSUSAT-1)

Hit Count: updated at: Tue, 20 Nov 2018 11:07:25 GMT